******************************************************************************* JPL/HORIZONS (2010 GB174) 2025-Dec-12 17:58:42 Rec #:50058523 (+COV) Soln.date: 2021-Apr-15_03:42:56 # obs: 37 (2009-2015) IAU76/J2000 helio. ecliptic osc. elements (au, days, deg., period=Julian yrs): EPOCH= 2455723.5 ! 2011-Jun-11.00 (TDB) Residual RMS= .089792 EC= .8588943668571413 QR= 48.45203582274008 TP= 2433852.01384428 OM= 130.7550399199781 W= 346.9301609578971 IN= 21.57402147162793 A= 343.3742136551421 MA= 3.387902093338903 ADIST= 638.2963914875442 PER= 6362.96771 N= .0001549 ANGMOM= .163254369 DAN= 49.03899 DDN= 551.35823 L= 118.5725046 B= -4.7697555 MOID= 47.4720993 TP= 1951-Jul-24.5138442800 Asteroid physical parameters (km, seconds, rotational period in hours): GM= n.a. RAD= n.a. ROTPER= n.a. H= 6.74 G= .150 B-V= n.a. ALBEDO= n.a. STYP= n.a. ASTEROID comments: 1: soln ref.= JPL#6, OCC=4 2: source=ORB ******************************************************************************* ******************************************************************************* Ephemeris / WWW_USER Fri Dec 12 17:58:42 2025 Pasadena, USA / Horizons ******************************************************************************* Target body name: (2010 GB174) {source: JPL#6} Center body name: Earth (399) {source: DE441} Center-site name: GEOCENTRIC ******************************************************************************* Start time : A.D. 1951-Aug-01 00:00:00.0000 UT Stop time : A.D. 1951-Sep-15 00:00:00.0000 UT Step-size : 180 minutes ******************************************************************************* Target pole/equ : undefined Target radii : undefined Center geodetic : 0.0, 0.0, -6378.137 {E-lon(deg),Lat(deg),Alt(km)} Center cylindric: 0.0, 0.0, 0.0 {E-lon(deg),Dxy(km),Dz(km)} Center pole/equ : ITRF93 {East-longitude positive} Center radii : 6378.137, 6378.137, 6356.752 km {Equator_a, b, pole_c} Target primary : Sun Vis. interferer : MOON (R_eq= 1737.400) km {source: DE441} Rel. light bend : Sun {source: DE441} Rel. lght bnd GM: 1.3271E+11 km^3/s^2 Small-body perts: Yes {source: SB441-N16} Atmos refraction: NO (AIRLESS) RA format : HMS Time format : CAL Calendar mode : Mixed Julian/Gregorian EOP file : eop.251212.p260310 EOP coverage : DATA-BASED 1962-JAN-20 TO 2025-DEC-12. PREDICTS-> 2026-MAR-09 Units conversion: 1 au= 149597870.700 km, c= 299792.458 km/s, 1 day= 86400.0 s Table cut-offs 1: Elevation (-90.0deg=NO ),Airmass (>38.000=NO), Daylight (NO ) Table cut-offs 2: Solar elongation ( 0.0,180.0=NO ),Local Hour Angle( 0.0=NO ) Table cut-offs 3: RA/DEC angular rate ( 0.0=NO ) ******************************************************************************* Initial IAU76/J2000 heliocentric ecliptic osculating elements (au, days, deg.): EPOCH= 2455723.5 ! 2011-Jun-11.00 (TDB) Residual RMS= .089792 EC= .8588943668571413 QR= 48.45203582274008 TP= 2433852.01384428 OM= 130.7550399199781 W= 346.9301609578971 IN= 21.57402147162793 Equivalent ICRF heliocentric cartesian coordinates (au, au/d): X=-6.493404314527417E+01 Y=-1.222099889690916E+01 Z= 1.713670395131279E+01 VX=-1.058347499633987E-03 VY=-2.584346151305390E-03 VZ=-9.699137073318628E-05 Asteroid physical parameters (km, seconds, rotational period in hours): GM= n.a. RAD= n.a. ROTPER= n.a. H= 6.74 G= .150 B-V= n.a. ALBEDO= n.a. STYP= n.a. ******************************************************************************* Date__(UT)__HR:MN r rdot ************************************************** $$SOE 1951-Aug-01 00:00 48.58854513248 -0.0038053 1951-Aug-01 03:00 48.58854485866 -0.0037805 1951-Aug-01 06:00 48.58854458662 -0.0037558 1951-Aug-01 09:00 48.58854431636 -0.0037310 1951-Aug-01 12:00 48.58854404790 -0.0037062 1951-Aug-01 15:00 48.58854378122 -0.0036815 1951-Aug-01 18:00 48.58854351633 -0.0036567 1951-Aug-01 21:00 48.58854325322 -0.0036320 1951-Aug-02 00:00 48.58854299191 -0.0036072 1951-Aug-02 03:00 48.58854273238 -0.0035825 1951-Aug-02 06:00 48.58854247463 -0.0035577 1951-Aug-02 09:00 48.58854221868 -0.0035330 1951-Aug-02 12:00 48.58854196451 -0.0035082 1951-Aug-02 15:00 48.58854171213 -0.0034835 1951-Aug-02 18:00 48.58854146153 -0.0034587 1951-Aug-02 21:00 48.58854121272 -0.0034340 1951-Aug-03 00:00 48.58854096570 -0.0034092 1951-Aug-03 03:00 48.58854072047 -0.0033844 1951-Aug-03 06:00 48.58854047702 -0.0033597 1951-Aug-03 09:00 48.58854023536 -0.0033349 1951-Aug-03 12:00 48.58853999549 -0.0033102 1951-Aug-03 15:00 48.58853975740 -0.0032854 1951-Aug-03 18:00 48.58853952110 -0.0032607 1951-Aug-03 21:00 48.58853928659 -0.0032359 1951-Aug-04 00:00 48.58853905387 -0.0032112 1951-Aug-04 03:00 48.58853882293 -0.0031864 1951-Aug-04 06:00 48.58853859378 -0.0031617 1951-Aug-04 09:00 48.58853836641 -0.0031369 1951-Aug-04 12:00 48.58853814084 -0.0031122 1951-Aug-04 15:00 48.58853791705 -0.0030874 1951-Aug-04 18:00 48.58853769504 -0.0030627 1951-Aug-04 21:00 48.58853747483 -0.0030379 1951-Aug-05 00:00 48.58853725640 -0.0030132 1951-Aug-05 03:00 48.58853703975 -0.0029884 1951-Aug-05 06:00 48.58853682490 -0.0029637 1951-Aug-05 09:00 48.58853661183 -0.0029389 1951-Aug-05 12:00 48.58853640055 -0.0029142 1951-Aug-05 15:00 48.58853619105 -0.0028894 1951-Aug-05 18:00 48.58853598334 -0.0028647 1951-Aug-05 21:00 48.58853577742 -0.0028399 1951-Aug-06 00:00 48.58853557329 -0.0028152 1951-Aug-06 03:00 48.58853537094 -0.0027904 1951-Aug-06 06:00 48.58853517038 -0.0027657 1951-Aug-06 09:00 48.58853497160 -0.0027409 1951-Aug-06 12:00 48.58853477461 -0.0027162 1951-Aug-06 15:00 48.58853457941 -0.0026914 1951-Aug-06 18:00 48.58853438600 -0.0026667 1951-Aug-06 21:00 48.58853419437 -0.0026419 1951-Aug-07 00:00 48.58853400453 -0.0026172 1951-Aug-07 03:00 48.58853381647 -0.0025924 1951-Aug-07 06:00 48.58853363021 -0.0025677 1951-Aug-07 09:00 48.58853344572 -0.0025429 1951-Aug-07 12:00 48.58853326303 -0.0025182 1951-Aug-07 15:00 48.58853308212 -0.0024934 1951-Aug-07 18:00 48.58853290300 -0.0024687 1951-Aug-07 21:00 48.58853272566 -0.0024439 1951-Aug-08 00:00 48.58853255011 -0.0024192 1951-Aug-08 03:00 48.58853237635 -0.0023945 1951-Aug-08 06:00 48.58853220438 -0.0023697 1951-Aug-08 09:00 48.58853203419 -0.0023450 1951-Aug-08 12:00 48.58853186578 -0.0023202 1951-Aug-08 15:00 48.58853169917 -0.0022955 1951-Aug-08 18:00 48.58853153434 -0.0022707 1951-Aug-08 21:00 48.58853137129 -0.0022460 1951-Aug-09 00:00 48.58853121003 -0.0022212 1951-Aug-09 03:00 48.58853105056 -0.0021965 1951-Aug-09 06:00 48.58853089288 -0.0021718 1951-Aug-09 09:00 48.58853073698 -0.0021470 1951-Aug-09 12:00 48.58853058287 -0.0021223 1951-Aug-09 15:00 48.58853043054 -0.0020975 1951-Aug-09 18:00 48.58853028000 -0.0020728 1951-Aug-09 21:00 48.58853013124 -0.0020481 1951-Aug-10 00:00 48.58852998428 -0.0020233 1951-Aug-10 03:00 48.58852983909 -0.0019986 1951-Aug-10 06:00 48.58852969570 -0.0019738 1951-Aug-10 09:00 48.58852955409 -0.0019491 1951-Aug-10 12:00 48.58852941426 -0.0019244 1951-Aug-10 15:00 48.58852927623 -0.0018996 1951-Aug-10 18:00 48.58852913997 -0.0018749 1951-Aug-10 21:00 48.58852900551 -0.0018501 1951-Aug-11 00:00 48.58852887283 -0.0018254 1951-Aug-11 03:00 48.58852874193 -0.0018007 1951-Aug-11 06:00 48.58852861283 -0.0017759 1951-Aug-11 09:00 48.58852848550 -0.0017512 1951-Aug-11 12:00 48.58852835997 -0.0017265 1951-Aug-11 15:00 48.58852823621 -0.0017017 1951-Aug-11 18:00 48.58852811425 -0.0016770 1951-Aug-11 21:00 48.58852799407 -0.0016523 1951-Aug-12 00:00 48.58852787568 -0.0016275 1951-Aug-12 03:00 48.58852775907 -0.0016028 1951-Aug-12 06:00 48.58852764424 -0.0015781 1951-Aug-12 09:00 48.58852753121 -0.0015533 1951-Aug-12 12:00 48.58852741995 -0.0015286 1951-Aug-12 15:00 48.58852731049 -0.0015039 1951-Aug-12 18:00 48.58852720281 -0.0014791 1951-Aug-12 21:00 48.58852709691 -0.0014544 1951-Aug-13 00:00 48.58852699280 -0.0014297 1951-Aug-13 03:00 48.58852689048 -0.0014049 1951-Aug-13 06:00 48.58852678994 -0.0013802 1951-Aug-13 09:00 48.58852669118 -0.0013555 1951-Aug-13 12:00 48.58852659422 -0.0013308 1951-Aug-13 15:00 48.58852649903 -0.0013060 1951-Aug-13 18:00 48.58852640563 -0.0012813 1951-Aug-13 21:00 48.58852631402 -0.0012566 1951-Aug-14 00:00 48.58852622419 -0.0012319 1951-Aug-14 03:00 48.58852613615 -0.0012071 1951-Aug-14 06:00 48.58852604989 -0.0011824 1951-Aug-14 09:00 48.58852596542 -0.0011577 1951-Aug-14 12:00 48.58852588273 -0.0011330 1951-Aug-14 15:00 48.58852580183 -0.0011082 1951-Aug-14 18:00 48.58852572271 -0.0010835 1951-Aug-14 21:00 48.58852564538 -0.0010588 1951-Aug-15 00:00 48.58852556983 -0.0010341 1951-Aug-15 03:00 48.58852549606 -0.0010094 1951-Aug-15 06:00 48.58852542408 -0.0009846 1951-Aug-15 09:00 48.58852535389 -0.0009599 1951-Aug-15 12:00 48.58852528548 -0.0009352 1951-Aug-15 15:00 48.58852521885 -0.0009105 1951-Aug-15 18:00 48.58852515401 -0.0008858 1951-Aug-15 21:00 48.58852509096 -0.0008610 1951-Aug-16 00:00 48.58852502969 -0.0008363 1951-Aug-16 03:00 48.58852497020 -0.0008116 1951-Aug-16 06:00 48.58852491250 -0.0007869 1951-Aug-16 09:00 48.58852485658 -0.0007622 1951-Aug-16 12:00 48.58852480244 -0.0007375 1951-Aug-16 15:00 48.58852475009 -0.0007127 1951-Aug-16 18:00 48.58852469953 -0.0006880 1951-Aug-16 21:00 48.58852465075 -0.0006633 1951-Aug-17 00:00 48.58852460375 -0.0006386 1951-Aug-17 03:00 48.58852455854 -0.0006139 1951-Aug-17 06:00 48.58852451511 -0.0005892 1951-Aug-17 09:00 48.58852447346 -0.0005645 1951-Aug-17 12:00 48.58852443360 -0.0005398 1951-Aug-17 15:00 48.58852439552 -0.0005151 1951-Aug-17 18:00 48.58852435923 -0.0004903 1951-Aug-17 21:00 48.58852432472 -0.0004656 1951-Aug-18 00:00 48.58852429199 -0.0004409 1951-Aug-18 03:00 48.58852426105 -0.0004162 1951-Aug-18 06:00 48.58852423189 -0.0003915 1951-Aug-18 09:00 48.58852420452 -0.0003668 1951-Aug-18 12:00 48.58852417893 -0.0003421 1951-Aug-18 15:00 48.58852415512 -0.0003174 1951-Aug-18 18:00 48.58852413310 -0.0002927 1951-Aug-18 21:00 48.58852411285 -0.0002680 1951-Aug-19 00:00 48.58852409440 -0.0002433 1951-Aug-19 03:00 48.58852407772 -0.0002186 1951-Aug-19 06:00 48.58852406283 -0.0001939 1951-Aug-19 09:00 48.58852404972 -0.0001692 1951-Aug-19 12:00 48.58852403840 -0.0001445 1951-Aug-19 15:00 48.58852402886 -0.0001198 1951-Aug-19 18:00 48.58852402110 -0.0000951 1951-Aug-19 21:00 48.58852401512 -0.0000704 1951-Aug-20 00:00 48.58852401093 -0.0000457 1951-Aug-20 03:00 48.58852400852 -0.0000210 1951-Aug-20 06:00 48.58852400789 0.0000037 1951-Aug-20 09:00 48.58852400905 0.0000284 1951-Aug-20 12:00 48.58852401199 0.0000531 1951-Aug-20 15:00 48.58852401671 0.0000777 1951-Aug-20 18:00 48.58852402322 0.0001024 1951-Aug-20 21:00 48.58852403150 0.0001271 1951-Aug-21 00:00 48.58852404157 0.0001518 1951-Aug-21 03:00 48.58852405342 0.0001765 1951-Aug-21 06:00 48.58852406706 0.0002012 1951-Aug-21 09:00 48.58852408247 0.0002259 1951-Aug-21 12:00 48.58852409967 0.0002506 1951-Aug-21 15:00 48.58852411865 0.0002752 1951-Aug-21 18:00 48.58852413942 0.0002999 1951-Aug-21 21:00 48.58852416196 0.0003246 1951-Aug-22 00:00 48.58852418629 0.0003493 1951-Aug-22 03:00 48.58852421240 0.0003740 1951-Aug-22 06:00 48.58852424029 0.0003987 1951-Aug-22 09:00 48.58852426996 0.0004233 1951-Aug-22 12:00 48.58852430142 0.0004480 1951-Aug-22 15:00 48.58852433465 0.0004727 1951-Aug-22 18:00 48.58852436967 0.0004974 1951-Aug-22 21:00 48.58852440647 0.0005221 1951-Aug-23 00:00 48.58852444505 0.0005467 1951-Aug-23 03:00 48.58852448541 0.0005714 1951-Aug-23 06:00 48.58852452756 0.0005961 1951-Aug-23 09:00 48.58852457148 0.0006207 1951-Aug-23 12:00 48.58852461719 0.0006454 1951-Aug-23 15:00 48.58852466468 0.0006701 1951-Aug-23 18:00 48.58852471395 0.0006948 1951-Aug-23 21:00 48.58852476500 0.0007194 1951-Aug-24 00:00 48.58852481783 0.0007441 1951-Aug-24 03:00 48.58852487244 0.0007688 1951-Aug-24 06:00 48.58852492884 0.0007934 1951-Aug-24 09:00 48.58852498701 0.0008181 1951-Aug-24 12:00 48.58852504697 0.0008428 1951-Aug-24 15:00 48.58852510870 0.0008674 1951-Aug-24 18:00 48.58852517222 0.0008921 1951-Aug-24 21:00 48.58852523752 0.0009168 1951-Aug-25 00:00 48.58852530459 0.0009414 1951-Aug-25 03:00 48.58852537345 0.0009661 1951-Aug-25 06:00 48.58852544409 0.0009907 1951-Aug-25 09:00 48.58852551651 0.0010154 1951-Aug-25 12:00 48.58852559071 0.0010401 1951-Aug-25 15:00 48.58852566669 0.0010647 1951-Aug-25 18:00 48.58852574445 0.0010894 1951-Aug-25 21:00 48.58852582398 0.0011140 1951-Aug-26 00:00 48.58852590530 0.0011387 1951-Aug-26 03:00 48.58852598840 0.0011633 1951-Aug-26 06:00 48.58852607328 0.0011880 1951-Aug-26 09:00 48.58852615994 0.0012126 1951-Aug-26 12:00 48.58852624838 0.0012373 1951-Aug-26 15:00 48.58852633859 0.0012619 1951-Aug-26 18:00 48.58852643059 0.0012866 1951-Aug-26 21:00 48.58852652437 0.0013112 1951-Aug-27 00:00 48.58852661992 0.0013359 1951-Aug-27 03:00 48.58852671726 0.0013605 1951-Aug-27 06:00 48.58852681637 0.0013851 1951-Aug-27 09:00 48.58852691727 0.0014098 1951-Aug-27 12:00 48.58852701994 0.0014344 1951-Aug-27 15:00 48.58852712439 0.0014591 1951-Aug-27 18:00 48.58852723062 0.0014837 1951-Aug-27 21:00 48.58852733863 0.0015083 1951-Aug-28 00:00 48.58852744842 0.0015330 1951-Aug-28 03:00 48.58852755998 0.0015576 1951-Aug-28 06:00 48.58852767333 0.0015822 1951-Aug-28 09:00 48.58852778845 0.0016069 1951-Aug-28 12:00 48.58852790535 0.0016315 1951-Aug-28 15:00 48.58852802403 0.0016561 1951-Aug-28 18:00 48.58852814449 0.0016808 1951-Aug-28 21:00 48.58852826673 0.0017054 1951-Aug-29 00:00 48.58852839074 0.0017300 1951-Aug-29 03:00 48.58852851653 0.0017546 1951-Aug-29 06:00 48.58852864410 0.0017793 1951-Aug-29 09:00 48.58852877345 0.0018039 1951-Aug-29 12:00 48.58852890458 0.0018285 1951-Aug-29 15:00 48.58852903748 0.0018531 1951-Aug-29 18:00 48.58852917216 0.0018777 1951-Aug-29 21:00 48.58852930862 0.0019024 1951-Aug-30 00:00 48.58852944685 0.0019270 1951-Aug-30 03:00 48.58852958687 0.0019516 1951-Aug-30 06:00 48.58852972866 0.0019762 1951-Aug-30 09:00 48.58852987222 0.0020008 1951-Aug-30 12:00 48.58853001757 0.0020254 1951-Aug-30 15:00 48.58853016469 0.0020500 1951-Aug-30 18:00 48.58853031359 0.0020747 1951-Aug-30 21:00 48.58853046426 0.0020993 1951-Aug-31 00:00 48.58853061671 0.0021239 1951-Aug-31 03:00 48.58853077094 0.0021485 1951-Aug-31 06:00 48.58853092694 0.0021731 1951-Aug-31 09:00 48.58853108472 0.0021977 1951-Aug-31 12:00 48.58853124428 0.0022223 1951-Aug-31 15:00 48.58853140561 0.0022469 1951-Aug-31 18:00 48.58853156872 0.0022715 1951-Aug-31 21:00 48.58853173360 0.0022961 1951-Sep-01 00:00 48.58853190026 0.0023207 1951-Sep-01 03:00 48.58853206869 0.0023453 1951-Sep-01 06:00 48.58853223890 0.0023698 1951-Sep-01 09:00 48.58853241089 0.0023944 1951-Sep-01 12:00 48.58853258465 0.0024190 1951-Sep-01 15:00 48.58853276019 0.0024436 1951-Sep-01 18:00 48.58853293750 0.0024682 1951-Sep-01 21:00 48.58853311659 0.0024928 1951-Sep-02 00:00 48.58853329745 0.0025174 1951-Sep-02 03:00 48.58853348009 0.0025420 1951-Sep-02 06:00 48.58853366450 0.0025665 1951-Sep-02 09:00 48.58853385069 0.0025911 1951-Sep-02 12:00 48.58853403865 0.0026157 1951-Sep-02 15:00 48.58853422838 0.0026403 1951-Sep-02 18:00 48.58853441989 0.0026648 1951-Sep-02 21:00 48.58853461317 0.0026894 1951-Sep-03 00:00 48.58853480823 0.0027140 1951-Sep-03 03:00 48.58853500506 0.0027385 1951-Sep-03 06:00 48.58853520367 0.0027631 1951-Sep-03 09:00 48.58853540405 0.0027877 1951-Sep-03 12:00 48.58853560620 0.0028122 1951-Sep-03 15:00 48.58853581012 0.0028368 1951-Sep-03 18:00 48.58853601582 0.0028614 1951-Sep-03 21:00 48.58853622330 0.0028859 1951-Sep-04 00:00 48.58853643254 0.0029105 1951-Sep-04 03:00 48.58853664356 0.0029350 1951-Sep-04 06:00 48.58853685635 0.0029596 1951-Sep-04 09:00 48.58853707091 0.0029841 1951-Sep-04 12:00 48.58853728725 0.0030087 1951-Sep-04 15:00 48.58853750536 0.0030332 1951-Sep-04 18:00 48.58853772524 0.0030578 1951-Sep-04 21:00 48.58853794689 0.0030823 1951-Sep-05 00:00 48.58853817032 0.0031069 1951-Sep-05 03:00 48.58853839552 0.0031314 1951-Sep-05 06:00 48.58853862249 0.0031560 1951-Sep-05 09:00 48.58853885123 0.0031805 1951-Sep-05 12:00 48.58853908174 0.0032050 1951-Sep-05 15:00 48.58853931402 0.0032296 1951-Sep-05 18:00 48.58853954808 0.0032541 1951-Sep-05 21:00 48.58853978390 0.0032786 1951-Sep-06 00:00 48.58854002150 0.0033031 1951-Sep-06 03:00 48.58854026087 0.0033277 1951-Sep-06 06:00 48.58854050201 0.0033522 1951-Sep-06 09:00 48.58854074491 0.0033767 1951-Sep-06 12:00 48.58854098959 0.0034012 1951-Sep-06 15:00 48.58854123604 0.0034258 1951-Sep-06 18:00 48.58854148426 0.0034503 1951-Sep-06 21:00 48.58854173425 0.0034748 1951-Sep-07 00:00 48.58854198601 0.0034993 1951-Sep-07 03:00 48.58854223954 0.0035238 1951-Sep-07 06:00 48.58854249484 0.0035483 1951-Sep-07 09:00 48.58854275191 0.0035728 1951-Sep-07 12:00 48.58854301074 0.0035973 1951-Sep-07 15:00 48.58854327135 0.0036218 1951-Sep-07 18:00 48.58854353372 0.0036463 1951-Sep-07 21:00 48.58854379787 0.0036708 1951-Sep-08 00:00 48.58854406378 0.0036953 1951-Sep-08 03:00 48.58854433146 0.0037198 1951-Sep-08 06:00 48.58854460091 0.0037443 1951-Sep-08 09:00 48.58854487213 0.0037688 1951-Sep-08 12:00 48.58854514511 0.0037933 1951-Sep-08 15:00 48.58854541986 0.0038177 1951-Sep-08 18:00 48.58854569638 0.0038422 1951-Sep-08 21:00 48.58854597467 0.0038667 1951-Sep-09 00:00 48.58854625472 0.0038912 1951-Sep-09 03:00 48.58854653655 0.0039157 1951-Sep-09 06:00 48.58854682013 0.0039401 1951-Sep-09 09:00 48.58854710549 0.0039646 1951-Sep-09 12:00 48.58854739261 0.0039891 1951-Sep-09 15:00 48.58854768150 0.0040135 1951-Sep-09 18:00 48.58854797215 0.0040380 1951-Sep-09 21:00 48.58854826457 0.0040624 1951-Sep-10 00:00 48.58854855876 0.0040869 1951-Sep-10 03:00 48.58854885471 0.0041113 1951-Sep-10 06:00 48.58854915243 0.0041358 1951-Sep-10 09:00 48.58854945191 0.0041602 1951-Sep-10 12:00 48.58854975316 0.0041847 1951-Sep-10 15:00 48.58855005617 0.0042091 1951-Sep-10 18:00 48.58855036095 0.0042336 1951-Sep-10 21:00 48.58855066749 0.0042580 1951-Sep-11 00:00 48.58855097580 0.0042825 1951-Sep-11 03:00 48.58855128587 0.0043069 1951-Sep-11 06:00 48.58855159770 0.0043313 1951-Sep-11 09:00 48.58855191130 0.0043557 1951-Sep-11 12:00 48.58855222666 0.0043802 1951-Sep-11 15:00 48.58855254379 0.0044046 1951-Sep-11 18:00 48.58855286268 0.0044290 1951-Sep-11 21:00 48.58855318333 0.0044534 1951-Sep-12 00:00 48.58855350574 0.0044778 1951-Sep-12 03:00 48.58855382992 0.0045022 1951-Sep-12 06:00 48.58855415586 0.0045267 1951-Sep-12 09:00 48.58855448356 0.0045511 1951-Sep-12 12:00 48.58855481302 0.0045755 1951-Sep-12 15:00 48.58855514425 0.0045999 1951-Sep-12 18:00 48.58855547723 0.0046243 1951-Sep-12 21:00 48.58855581198 0.0046487 1951-Sep-13 00:00 48.58855614849 0.0046730 1951-Sep-13 03:00 48.58855648676 0.0046974 1951-Sep-13 06:00 48.58855682679 0.0047218 1951-Sep-13 09:00 48.58855716858 0.0047462 1951-Sep-13 12:00 48.58855751213 0.0047706 1951-Sep-13 15:00 48.58855785745 0.0047950 1951-Sep-13 18:00 48.58855820452 0.0048193 1951-Sep-13 21:00 48.58855855335 0.0048437 1951-Sep-14 00:00 48.58855890394 0.0048681 1951-Sep-14 03:00 48.58855925629 0.0048924 1951-Sep-14 06:00 48.58855961040 0.0049168 1951-Sep-14 09:00 48.58855996627 0.0049412 1951-Sep-14 12:00 48.58856032390 0.0049655 1951-Sep-14 15:00 48.58856068328 0.0049899 1951-Sep-14 18:00 48.58856104443 0.0050142 1951-Sep-14 21:00 48.58856140733 0.0050386 1951-Sep-15 00:00 48.58856177199 0.0050629 $$EOE ******************************************************************************* Column meaning: TIME Times PRIOR to 1962 are UT1, a mean-solar time closely related to the prior but now-deprecated GMT. Times AFTER 1962 are in UTC, the current civil or "wall-clock" time-scale. UTC is kept within 0.9 seconds of UT1 using integer leap-seconds for 1972 and later years. Conversion from the internal Barycentric Dynamical Time (TDB) of solar system dynamics to the non-uniform civil UT time-scale requested for output has not been determined for UTC times after the next July or January 1st. Therefore, the last known leap-second is used as a constant over future intervals. Time tags refer to the UT time-scale conversion from TDB on Earth regardless of observer location within the solar system, although clock rates may differ due to the local gravity field and no analog to "UT" may be defined for that location. Any 'b' symbol in the 1st-column denotes a B.C. date. First-column blank (" ") denotes an A.D. date. CALENDAR SYSTEM Mixed calendar mode was active such that calendar dates after AD 1582-Oct-15 (if any) are in the modern Gregorian system. Dates prior to 1582-Oct-5 (if any) are in the Julian calendar system, which is automatically extended for dates prior to its adoption on 45-Jan-1 BC. The Julian calendar is useful for matching historical dates. The Gregorian calendar more accurately corresponds to the Earth's orbital motion and seasons. A "Gregorian-only" calendar mode is available if such physical events are the primary interest. NOTE: "n.a." in output means quantity "not available" at the print-time. 'r rdot' = The Sun's apparent range ("r", light-time aberrated) and range-rate ("rdot") relative to the target center, as seen by the observer. A positive "rdot" means the target center was moving away from the Sun, negative means moving toward the Sun. Units: AU and KM/S Computations by ... Solar System Dynamics Group, Horizons On-Line Ephemeris System 4800 Oak Grove Drive, Jet Propulsion Laboratory Pasadena, CA 91109 USA General site: https://ssd.jpl.nasa.gov/ Mailing list: https://ssd.jpl.nasa.gov/email_list.html System news : https://ssd.jpl.nasa.gov/horizons/news.html User Guide : https://ssd.jpl.nasa.gov/horizons/manual.html Connect : browser https://ssd.jpl.nasa.gov/horizons/app.html#/x API https://ssd-api.jpl.nasa.gov/doc/horizons.html command-line telnet ssd.jpl.nasa.gov 6775 e-mail/batch https://ssd.jpl.nasa.gov/ftp/ssd/horizons_batch.txt scripts https://ssd.jpl.nasa.gov/ftp/ssd/SCRIPTS Author : Jon.D.Giorgini@jpl.nasa.gov ******************************************************************************* !$$SOF COMMAND = '2010 GB174' QUANTITIES = '19' START_TIME = '1951-Aug-01' STEP_SIZE = '3 hours' STOP_TIME = '1951-Sep-15'